Location: Sihaung
(22.8641°N, 94.0549°E)
Time: 01:51:24
(UTC+00:00)

Lacrosse 4 Rocket - Pass Details

Date: 03 March 2021
Orbit: 537 x 620 km, 68.0° (Epoch: 13 April)

Event Time Altitude Azimuth Distance (km) Brightness Sun altitude
Rises 22:50:23 0° 355° (N) 2,876 4.9 -17.5°
Reaches altitude 10° 22:53:01 10° 9° (N) 1,959 4.2 -16.9°
Maximum altitude 22:56:36 24° 64° (ENE) 1,250 3.9 -16.1°
Drops below altitude 10° 23:00:07 10° 119° (ESE) 1,917 5.1 -15.2°
Sets 23:02:40 0° 133° (SE) 2,800 5.7 -14.7°
